World > North America > United States > Florida > Key West   City of Key West, FL

Key West, FL Hourly Weather Updates

Feedback E-mail the Weather

Quick Clicks

Key West, FL Weather Maps

°F °C°F °C
Key West Weather Map
UTC Time: 6/25/2024, 19:38
Your Time:

Key West, FL Regional Weather

Expires:202406252000;;918209
ASUS42 KTBW 251911
RWRFL 
FLORIDA REGIONAL WEATHER ROUNDUP
NATIONAL WEATHER SERVICE TAMPA BAY RUSKIN FL
300 PM EDT TUE JUN 25 2024

NOTE: "FAIR" INDICATES FEW OR NO CLOUDS BELOW 12,000 FEET WITH NO
SIGNIFICANT WEATHER AND/OR OBSTRUCTIONS TO VISIBILITY.


FLZ066-069-070-075>078-162-262-165-265-252000-
SOUTHWEST FLORIDA AND KEYS
  
CITY           SKY/WX    TMP DP  RH WIND       PRES   REMARKS
PUNTA GORDA    PTSUNNY   90  76  63 W10       29.96F THUNDER HX 101   
FT MYERS       PTSUNNY   88  77  69 SW12G18   29.95F HX 100           
SOUTHWEST INTL PTSUNNY   87  77  72 SW10      29.96F HX  99           
NAPLES         PTSUNNY   87  79  76 W9        29.97F HX 101           
IMMOKALEE      MOSUNNY   86  81  84 SW8       29.96F HX 102           
MARATHON       PTSUNNY   88  76  67 SW6       29.99F HX  99           
KEY WEST NAS   FAIR      91  77  63 W10       30.00F HX 104           
KEY WEST INTL  FAIR      89  76  65 SW10      30.01S HX 100           

STATION/POSITION SKY/WX   TEMP    WIND        PRES    WAVE   SWELL
                          AIR SEA DIR/SP/G            HT/PER HT/PER
                          (F)     (DEG/KT/KT) (MB)    (FT/S) (FT/S)
NAPLES           NOT AVBL
DRY TORTUGAS     NOT AVBL
SAND KEY                   84     270/  8/ 10 1016.1F
SOMBRERO KEY                                  1015.0F
LONG KEY                   84     270/  9/ 11 1014.8F

$$

SKY/WX - Weather  TMP - Temperature  DP - Dew Point  RH - Humidity
WIND - Wind Direction/Speed PRES - Barometric Pressure VSB - Visibility
WCI - Wind Chill Index E13G22 Wind - East Wind 13 mph/Gusts of 22 mph

Trending Headlines

Trending Entertainment Headlines

Key West Radar Loop

Use the map search tool if you want to place a location marker on the radar map...

Key West Quick Facts

National Two Day Weather Forecast


E-mail the Key West Weather Forecast

Voice your opinion or tell us about page issues...